"read_dt","SO2 (ppb)","flags","PMT voltage (V)","lamp voltage (V)","lamp intensity (Hz)","internal temp (C)","react chamber temp (C)","sample flow (l/min)","pres (mmHg)","SO2 bkg (ppb)","SO2 coefficient"
2014-03-22 00:00:00,4129E-2,5C000410,-0724,1187,8607,028.8,045.3,0.000,750.1,01.17,0.508
2014-03-22 00:01:00,4221E-2,5C000410,-0724,1190,8639,028.8,045.4,0.000,750.1,01.17,0.508
2014-03-22 00:02:00,4180E-2,5C000410,-0724,1191,8551,028.8,045.4,0.000,750.0,01.17,0.508
2014-03-22 00:03:00,4205E-2,5C000410,-0724,1193,8554,028.8,045.3,0.000,750.1,01.17,0.508
2014-03-22 00:04:00,4173E-2,5C000410,-0724,1196,8590,028.8,045.3,0.000,750.0,01.17,0.508
2014-03-22 00:05:00,4167E-2,5C000410,-0724,1198,8581,028.8,045.3,0.000,750.1,01.17,0.508
2014-03-22 00:06:00,4163E-2,5C000410,-0724,1200,8568,028.8,045.3,0.000,750.1,01.17,0.508
2014-03-22 00:07:00,4221E-2,5C000490,-0724,1202,8546,028.8,045.4,0.000,750.1,01.17,0.508
2014-03-22 00:08:00,4252E-2,5C000490,-0724,1205,8545,028.8,045.4,0.000,750.0,01.17,0.508
2014-03-22 00:09:00,4243E-2,5C000490,-0724,1205,8453,028.8,045.3,0.000,750.0,01.17,0.508
2014-03-22 00:10:00,4184E-2,5C000490,-0724,1206,8448,028.8,045.4,0.000,750.1,01.17,0.508
2014-03-22 00:11:00,4244E-2,5C000490,-0724,1208,8478,028.8,045.4,0.000,750.0,01.17,0.508
2014-03-22 00:12:00,4312E-2,5C000490,-0724,1209,8401,028.8,045.4,0.000,750.0,01.17,0.508
2014-03-22 00:13:00,4325E-2,5C000490,-0724,1210,8466,028.8,045.4,0.000,750.0,01.17,0.508
2014-03-22 00:14:00,4218E-2,5C000490,-0724,1212,8353,028.8,045.3,0.000,750.0,01.17,0.508
2014-03-22 00:15:00,4263E-2,5C000490,-0724,1214,8450,028.8,045.3,0.000,750.0,01.17,0.508
2014-03-22 00:16:00,4247E-2,5C000490,-0724,1215,8417,028.8,045.4,0.000,750.0,01.17,0.508
2014-03-22 00:17:00,4316E-2,5C000490,-0724,1216,8493,028.8,045.3,0.000,750.0,01.17,0.508
2014-03-22 00:18:00,4289E-2,5C000490,-0724,1217,8260,028.8,045.3,0.000,750.0,01.17,0.508
2014-03-22 00:19:00,4270E-2,5C000490,-0724,1219,8355,028.8,045.3,0.000,749.9,01.17,0.508
2014-03-22 00:20:00,4279E-2,5C000490,-0724,1221,8286,028.8,045.3,0.000,750.0,01.17,0.508
2014-03-22 00:21:00,4269E-2,5C000490,-0724,1223,8271,028.8,045.4,0.000,750.1,01.17,0.508
2014-03-22 00:22:00,4249E-2,5C000490,-0724,1224,8157,028.8,045.4,0.000,750.0,01.17,0.508
2014-03-22 00:23:00,4248E-2,5C000490,-0724,1226,8267,028.8,045.3,0.000,750.0,01.17,0.508
2014-03-22 00:24:00,4291E-2,5C000490,-0724,1227,8174,028.8,045.3,0.000,750.0,01.17,0.508
2014-03-22 00:25:00,4268E-2,5C000490,-0724,1228,8258,028.8,045.3,0.000,750.0,01.17,0.508
2014-03-22 00:26:00,4326E-2,5C000490,-0724,1229,8224,028.8,045.4,0.000,750.0,01.17,0.508
2014-03-22 00:27:00,4286E-2,5C000490,-0724,1230,8281,028.8,045.3,0.000,750.0,01.17,0.508
2014-03-22 00:28:00,4294E-2,5C000490,-0724,1231,8141,028.8,045.3,0.000,750.0,01.17,0.508
2014-03-22 00:29:00,4381E-2,5C000490,-0724,1233,8106,028.8,045.4,0.000,750.0,01.17,0.508
2014-03-22 00:30:00,4311E-2,5C000490,-0724,1235,8138,028.8,045.4,0.000,750.0,01.17,0.508
2014-03-22 00:31:00,4298E-2,5C000490,-0724,1236,8161,028.8,045.3,0.000,750.0,01.17,0.508
2014-03-22 00:32:00,4257E-2,5C000490,-0724,1238,8236,028.8,045.3,0.000,749.9,01.17,0.508
2014-03-22 00:33:00,4162E-2,5C000490,-0724,1239,8243,028.8,045.3,0.000,749.9,01.17,0.508
2014-03-22 00:34:00,4151E-2,5C000490,-0724,1241,8036,028.8,045.3,0.000,750.0,01.17,0.508
2014-03-22 00:35:00,4167E-2,5C000490,-0724,1242,8139,028.9,045.4,0.000,750.0,01.17,0.508
2014-03-22 00:36:00,4183E-2,5C000490,-0724,1243,8169,028.8,045.3,0.000,750.0,01.17,0.508
2014-03-22 00:37:00,4188E-2,5C000490,-0724,1242,8165,028.9,045.3,0.000,749.9,01.17,0.508
2014-03-22 00:38:00,4118E-2,5C000490,-0724,1244,8070,028.8,045.3,0.000,750.0,01.17,0.508
2014-03-22 00:39:00,4170E-2,5C000490,-0724,1247,8063,028.9,045.3,0.000,750.0,01.17,0.508
2014-03-22 00:40:00,4178E-2,5C000490,-0724,1248,8161,028.8,045.4,0.000,749.9,01.17,0.508
2014-03-22 00:41:00,4156E-2,5C000490,-0724,1249,8131,028.9,045.4,0.000,749.9,01.17,0.508
2014-03-22 00:42:00,4144E-2,5C000490,-0724,1250,7992,028.8,045.3,0.000,749.9,01.17,0.508
2014-03-22 00:43:00,4218E-2,5C000490,-0724,1251,7957,028.9,045.3,0.000,749.9,01.17,0.508
2014-03-22 00:44:00,4147E-2,5C000490,-0724,1253,8008,028.9,045.3,0.000,749.8,01.17,0.508
2014-03-22 00:45:00,4300E-2,5C000490,-0724,1257,8031,028.9,045.4,0.000,749.8,01.17,0.508
2014-03-22 00:46:00,4313E-2,5C000490,-0724,1258,7987,028.9,045.4,0.000,749.8,01.17,0.508
2014-03-22 00:47:00,4257E-2,5C000490,-0724,1260,7903,028.9,045.3,0.000,749.8,01.17,0.508
2014-03-22 00:48:00,4278E-2,5C000490,-0724,1262,7777,028.9,045.3,0.000,749.8,01.17,0.508
2014-03-22 00:49:00,4259E-2,5C000490,-0724,1263,7866,028.9,045.3,0.000,749.9,01.17,0.508
2014-03-22 00:50:00,4311E-2,5C000490,-0724,1264,7965,028.9,045.3,0.000,749.8,01.17,0.508
2014-03-22 00:51:00,4326E-2,5C000490,-0724,1266,7950,028.9,045.4,0.000,749.9,01.17,0.508
2014-03-22 00:52:00,4340E-2,5C000490,-0724,1267,7858,028.9,045.3,0.000,749.9,01.17,0.508
2014-03-22 00:53:00,4254E-2,5C000490,-0724,1269,7932,028.9,045.4,0.000,749.8,01.17,0.508
2014-03-22 00:54:00,4336E-2,5C000490,-0724,1270,7881,028.9,045.3,0.000,749.9,01.17,0.508
2014-03-22 00:55:00,4309E-2,5C000490,-0724,1269,7873,028.9,045.4,0.000,749.8,01.17,0.508
2014-03-22 00:56:00,4320E-2,5C000490,-0724,1271,7873,028.9,045.3,0.000,749.8,01.17,0.508
2014-03-22 00:57:00,4332E-2,5C000490,-0724,1272,7878,028.9,045.4,0.000,749.9,01.17,0.508
2014-03-22 00:58:00,4362E-2,5C000490,-0724,1273,7851,028.9,045.4,0.000,749.9,01.17,0.508
2014-03-22 00:59:00,4292E-2,5C000490,-0724,1274,7870,028.9,045.4,0.000,749.9,01.17,0.508
2014-03-22 01:00:00,4312E-2,5C000490,-0724,1276,7620,028.9,045.3,0.000,749.8,01.17,0.508
2014-03-22 01:01:00,4396E-2,5C000490,-0724,1278,7824,028.9,045.3,0.000,749.9,01.17,0.508
2014-03-22 01:02:00,4388E-2,5C000490,-0724,1279,7720,028.9,045.3,0.000,749.8,01.17,0.508
2014-03-22 01:03:00,4354E-2,5C000490,-0724,1280,7794,028.9,045.4,0.000,749.8,01.17,0.508
2014-03-22 01:04:00,4396E-2,5C000490,-0724,1280,7776,028.9,045.3,0.000,749.8,01.17,0.508
2014-03-22 01:05:00,4376E-2,5C000490,-0724,1282,7644,028.9,045.3,0.000,749.7,01.17,0.508
2014-03-22 01:06:00,4400E-2,5C000490,-0724,1280,7721,028.9,045.3,0.000,749.8,01.17,0.508
2014-03-22 01:07:00,4363E-2,5C000490,-0724,1281,7822,028.9,045.3,0.000,749.8,01.17,0.508
2014-03-22 01:08:00,4398E-2,5C000490,-0724,1281,7644,028.9,045.4,0.000,749.7,01.17,0.508
2014-03-22 01:09:00,4390E-2,5C000490,-0724,1284,7721,029.0,045.4,0.000,749.7,01.17,0.508
2014-03-22 01:10:00,4398E-2,5C000490,-0724,1282,7748,028.9,045.4,0.000,749.8,01.17,0.508
2014-03-22 01:11:00,4338E-2,5C000490,-0724,1284,7747,029.0,045.4,0.000,749.7,01.17,0.508
2014-03-22 01:12:00,4402E-2,5C000490,-0724,1287,7680,029.0,045.4,0.000,749.8,01.17,0.508
2014-03-22 01:13:00,4397E-2,5C000490,-0724,1287,7730,029.0,045.3,0.000,749.8,01.17,0.508
2014-03-22 01:14:00,4448E-2,5C000490,-0724,1288,7690,029.0,045.4,0.000,749.8,01.17,0.508
2014-03-22 01:15:00,4472E-2,5C000490,-0724,1287,7675,029.0,045.4,0.000,749.8,01.17,0.508
2014-03-22 01:16:00,4402E-2,5C000490,-0724,1288,7685,029.0,045.3,0.000,749.8,01.17,0.508
2014-03-22 01:17:00,4445E-2,5C000490,-0724,1289,7580,029.0,045.4,0.000,749.8,01.17,0.508
2014-03-22 01:18:00,4442E-2,5C000490,-0724,1290,7700,029.0,045.3,0.000,749.8,01.17,0.508
2014-03-22 01:19:00,4408E-2,5C000490,-0724,1290,7693,029.0,045.4,0.000,749.8,01.17,0.508
2014-03-22 01:20:00,4430E-2,5C000490,-0724,1291,7625,029.0,045.4,0.000,749.8,01.17,0.508
2014-03-22 01:21:00,4405E-2,5C000490,-0724,1292,7694,029.0,045.4,0.000,749.8,01.17,0.508
2014-03-22 01:22:00,4466E-2,5C000490,-0724,1294,7529,029.0,045.4,0.000,749.8,01.17,0.508
2014-03-22 01:23:00,4428E-2,5C000490,-0724,1296,7708,029.0,045.4,0.000,749.8,01.17,0.508
2014-03-22 01:24:00,4452E-2,5C000490,-0724,1296,7477,029.0,045.3,0.000,749.8,01.17,0.508
2014-03-22 01:25:00,4482E-2,5C000490,-0724,1296,7575,029.0,045.4,0.000,749.8,01.17,0.508
2014-03-22 01:26:00,4453E-2,5C000490,-0724,1296,7567,029.0,045.3,0.000,749.7,01.17,0.508
2014-03-22 01:27:00,4505E-2,5C000490,-0724,1297,7611,029.0,045.4,0.000,749.8,01.17,0.508
2014-03-22 01:28:00,4492E-2,5C000490,-0724,1300,7608,029.0,045.4,0.000,749.7,01.17,0.508
2014-03-22 01:29:00,4545E-2,5C000490,-0724,1301,7603,029.0,045.3,0.000,749.7,01.17,0.508
2014-03-22 01:30:00,4484E-2,5C000490,-0724,1303,7579,029.0,045.4,0.000,749.7,01.17,0.508
2014-03-22 01:31:00,4562E-2,5C000490,-0724,1303,7453,029.0,045.4,0.000,749.7,01.17,0.508
2014-03-22 01:32:00,4528E-2,5C000490,-0724,1304,7523,029.0,045.4,0.000,749.6,01.17,0.508
2014-03-22 01:33:00,4537E-2,5C000490,-0724,1304,7555,029.0,045.4,0.000,749.6,01.17,0.508
2014-03-22 01:34:00,4493E-2,5C000490,-0724,1306,7525,029.0,045.3,0.000,749.6,01.17,0.508
2014-03-22 01:35:00,4530E-2,5C000490,-0724,1306,7566,029.1,045.4,0.000,749.5,01.17,0.508
2014-03-22 01:36:00,4549E-2,5C000490,-0724,1306,7463,029.1,045.3,0.000,749.6,01.17,0.508
2014-03-22 01:37:00,4501E-2,5C000490,-0724,1307,7448,029.1,045.4,0.000,749.6,01.17,0.508
2014-03-22 01:38:00,4534E-2,5C000490,-0724,1307,7557,029.1,045.3,0.000,749.5,01.17,0.508
2014-03-22 01:39:00,4518E-2,5C000490,-0724,1307,7540,029.1,045.3,0.000,749.5,01.17,0.508
2014-03-22 01:40:00,4593E-2,5C000490,-0724,1309,7400,029.1,045.3,0.000,749.5,01.17,0.508
2014-03-22 01:41:00,4552E-2,5C000490,-0724,1310,7482,029.1,045.4,0.000,749.6,01.17,0.508
2014-03-22 01:42:00,4538E-2,5C000490,-0724,1311,7310,029.1,045.4,0.000,749.5,01.17,0.508
2014-03-22 01:43:00,4567E-2,5C000490,-0724,1312,7478,029.1,045.4,0.000,749.5,01.17,0.508
2014-03-22 01:44:00,4564E-2,5C000490,-0724,1311,7392,029.1,045.4,0.000,749.5,01.17,0.508
2014-03-22 01:45:00,4578E-2,5C000490,-0724,1312,7403,029.1,045.4,0.000,749.5,01.17,0.508
2014-03-22 01:46:00,4622E-2,5C000490,-0724,1313,7470,029.1,045.4,0.000,749.5,01.17,0.508
2014-03-22 01:47:00,4594E-2,5C000490,-0724,1313,7414,029.1,045.4,0.000,749.4,01.17,0.508
2014-03-22 01:48:00,4623E-2,5C000490,-0724,1314,7383,029.1,045.3,0.000,749.4,01.17,0.508
2014-03-22 01:49:00,4594E-2,5C000490,-0724,1315,7417,029.1,045.4,0.000,749.4,01.17,0.508
2014-03-22 01:50:00,4605E-2,5C000490,-0724,1316,7418,029.1,045.3,0.000,749.5,01.17,0.508
2014-03-22 01:51:00,4551E-2,5C000490,-0724,1317,7434,029.1,045.3,0.000,749.5,01.17,0.508
2014-03-22 01:52:00,4634E-2,5C000490,-0724,1318,7421,029.1,045.4,0.000,749.5,01.17,0.508
2014-03-22 01:53:00,4599E-2,5C000490,-0724,1317,7476,029.1,045.4,0.000,749.5,01.17,0.508
2014-03-22 01:54:00,4605E-2,5C000490,-0724,1315,7208,029.1,045.4,0.000,749.5,01.17,0.508
2014-03-22 01:55:00,4624E-2,5C000490,-0724,1316,7447,029.1,045.4,0.000,749.3,01.17,0.508
2014-03-22 01:56:00,4615E-2,5C000490,-0724,1317,7355,029.1,045.4,0.000,749.3,01.17,0.508
2014-03-22 01:57:00,4567E-2,5C000490,-0724,1319,7351,029.1,045.4,0.000,749.3,01.17,0.508
2014-03-22 01:58:00,4610E-2,5C000490,-0724,1318,7394,029.1,045.4,0.000,749.3,01.17,0.508
2014-03-22 01:59:00,4648E-2,5C000490,-0724,1319,7356,029.1,045.3,0.000,749.3,01.17,0.508
2014-03-22 02:00:00,4614E-2,5C000490,-0724,1319,7394,029.1,045.4,0.000,749.4,01.17,0.508
2014-03-22 02:01:00,4637E-2,5C000490,-0724,1321,7365,029.1,045.3,0.000,749.4,01.17,0.508
2014-03-22 02:02:00,4630E-2,5C000490,-0724,1322,7280,029.1,045.4,0.000,749.4,01.17,0.508
2014-03-22 02:03:00,4728E-2,5C000490,-0724,1323,7342,029.1,045.3,0.000,749.4,01.17,0.508
2014-03-22 02:04:00,4611E-2,5C000490,-0724,1323,7294,029.1,045.4,0.000,749.4,01.17,0.508
2014-03-22 02:05:00,4645E-2,5C000490,-0724,1322,7404,029.1,045.4,0.000,749.3,01.17,0.508
2014-03-22 02:06:00,4672E-2,5C000490,-0724,1322,7385,029.1,045.4,0.000,749.3,01.17,0.508
2014-03-22 02:07:00,4682E-2,5C000490,-0724,1321,7407,029.1,045.4,0.000,749.5,01.17,0.508
2014-03-22 02:08:00,4629E-2,5C000490,-0724,1324,7221,029.1,045.4,0.000,749.5,01.17,0.508
2014-03-22 02:09:00,4699E-2,5C000490,-0724,1326,7345,029.1,045.4,0.000,749.4,01.17,0.508
2014-03-22 02:10:00,4672E-2,5C000490,-0724,1326,7304,029.1,045.4,0.000,749.4,01.17,0.508
2014-03-22 02:11:00,4666E-2,5C000490,-0724,1327,7317,029.1,045.3,0.000,749.4,01.17,0.508
2014-03-22 02:12:00,4667E-2,5C000490,-0724,1328,7199,029.1,045.3,0.000,749.4,01.17,0.508
2014-03-22 02:13:00,4666E-2,5C000490,-0724,1329,7319,029.1,045.4,0.000,749.5,01.17,0.508
2014-03-22 02:14:00,4657E-2,5C000490,-0724,1331,7307,029.1,045.4,0.000,749.5,01.17,0.508
2014-03-22 02:15:00,4678E-2,5C000490,-0724,1331,7169,029.1,045.4,0.000,749.4,01.17,0.508
2014-03-22 02:16:00,4692E-2,5C000490,-0724,1332,7194,029.2,045.4,0.000,749.4,01.17,0.508
2014-03-22 02:17:00,4752E-2,5C000490,-0724,1332,7248,029.2,045.4,0.000,749.4,01.17,0.508
2014-03-22 02:18:00,4693E-2,5C000490,-0724,1333,7255,029.1,045.3,0.000,749.4,01.17,0.508
2014-03-22 02:19:00,4732E-2,5C000490,-0724,1333,7297,029.1,045.4,0.000,749.5,01.17,0.508
2014-03-22 02:20:00,4729E-2,5C000490,-0724,1334,7122,029.2,045.4,0.000,749.4,01.17,0.508
2014-03-22 02:21:00,4698E-2,5C000490,-0724,1333,7323,029.2,045.4,0.000,749.4,01.17,0.508
2014-03-22 02:22:00,4673E-2,5C000490,-0724,1333,7291,029.2,045.4,0.000,749.4,01.17,0.508
2014-03-22 02:23:00,4710E-2,5C000490,-0724,1334,7057,029.2,045.4,0.000,749.4,01.17,0.508
2014-03-22 02:24:00,4718E-2,5C000490,-0724,1335,7297,029.1,045.4,0.000,749.4,01.17,0.508
2014-03-22 02:25:00,4734E-2,5C000490,-0724,1335,7225,029.2,045.4,0.000,749.4,01.17,0.508
2014-03-22 02:26:00,4680E-2,5C000490,-0724,1336,7248,029.2,045.4,0.000,749.5,01.17,0.508
2014-03-22 02:27:00,4737E-2,5C000490,-0724,1336,7203,029.2,045.4,0.000,749.5,01.17,0.508
2014-03-22 02:28:00,4706E-2,5C000490,-0724,1338,7154,029.2,045.4,0.000,749.5,01.17,0.508
2014-03-22 02:29:00,4693E-2,5C000490,-0724,1339,7203,029.2,045.4,0.000,749.5,01.17,0.508
2014-03-22 02:30:00,4714E-2,5C000490,-0724,1340,7151,029.2,045.3,0.000,749.5,01.17,0.508
2014-03-22 02:31:00,4719E-2,5C000490,-0724,1340,7221,029.2,045.4,0.000,749.5,01.17,0.508
2014-03-22 02:32:00,4719E-2,5C000490,-0724,1341,7144,029.2,045.4,0.000,749.5,01.17,0.508
2014-03-22 02:33:00,4717E-2,5C000490,-0724,1341,7133,029.2,045.4,0.000,749.5,01.17,0.508
2014-03-22 02:34:00,4702E-2,5C000490,-0724,1342,7078,029.2,045.3,0.000,749.5,01.17,0.508
2014-03-22 02:35:00,4733E-2,5C000490,-0724,1342,7147,029.2,045.3,0.000,749.5,01.17,0.508
2014-03-22 02:36:00,4696E-2,5C000490,-0724,1343,7176,029.2,045.3,0.000,749.5,01.17,0.508
2014-03-22 02:37:00,4740E-2,5C000490,-0724,1342,7188,029.2,045.3,0.000,749.5,01.17,0.508
2014-03-22 02:38:00,4720E-2,5C000490,-0724,1343,7098,029.2,045.4,0.000,749.4,01.17,0.508
2014-03-22 02:39:00,4708E-2,5C000490,-0724,1345,7151,029.2,045.4,0.000,749.5,01.17,0.508
2014-03-22 02:40:00,4737E-2,5C000490,-0724,1344,7171,029.3,045.4,0.000,749.5,01.17,0.508
2014-03-22 02:41:00,4691E-2,5C000490,-0724,1343,7152,029.2,045.4,0.000,749.5,01.17,0.508
2014-03-22 02:42:00,4634E-2,5C000490,-0724,1344,7195,029.3,045.4,0.000,749.5,01.17,0.508
2014-03-22 02:43:00,4667E-2,5C000490,-0724,1345,7110,029.3,045.4,0.000,749.5,01.17,0.508
2014-03-22 02:44:00,4631E-2,5C000490,-0724,1346,7063,029.3,045.4,0.000,749.5,01.17,0.508
2014-03-22 02:45:00,4634E-2,5C000490,-0724,1348,7037,029.3,045.4,0.000,749.5,01.17,0.508
2014-03-22 02:46:00,4682E-2,5C000490,-0724,1348,7025,029.3,045.4,0.000,749.6,01.17,0.508
2014-03-22 02:47:00,4705E-2,5C000490,-0724,1348,7006,029.3,045.4,0.000,749.6,01.17,0.508
2014-03-22 02:48:00,4652E-2,5C000490,-0724,1350,7089,029.3,045.4,0.000,749.6,01.17,0.508
2014-03-22 02:49:00,4663E-2,5C000490,-0724,1352,7104,029.3,045.4,0.000,749.5,01.17,0.508
2014-03-22 02:50:00,4678E-2,5C000490,-0724,1351,6995,029.3,045.4,0.000,749.5,01.17,0.508
2014-03-22 02:51:00,4658E-2,5C000490,-0724,1352,7120,029.3,045.4,0.000,749.5,01.17,0.508
2014-03-22 02:52:00,4633E-2,5C000490,-0724,1353,6999,029.3,045.4,0.000,749.4,01.17,0.508
2014-03-22 02:53:00,4676E-2,5C000490,-0724,1353,6934,029.3,045.3,0.000,749.4,01.17,0.508
2014-03-22 02:54:00,4681E-2,5C000490,-0724,1353,7074,029.3,045.3,0.000,749.4,01.17,0.508
2014-03-22 02:55:00,4680E-2,5C000490,-0724,1354,7011,029.3,045.3,0.000,749.5,01.17,0.508
2014-03-22 02:56:00,4674E-2,5C000490,-0724,1355,7017,029.3,045.4,0.000,749.5,01.17,0.508
2014-03-22 02:57:00,4638E-2,5C000490,-0724,1356,7027,029.3,045.4,0.000,749.5,01.17,0.508
2014-03-22 02:58:00,4698E-2,5C000490,-0724,1357,7004,029.3,045.4,0.000,749.5,01.17,0.508
2014-03-22 02:59:00,4642E-2,5C000490,-0724,1357,6964,029.3,045.4,0.000,749.5,01.17,0.508
2014-03-22 03:00:00,4579E-2,5C000490,-0724,1359,6943,029.3,045.4,0.000,749.4,01.17,0.508
2014-03-22 03:01:00,4583E-2,5C000490,-0724,1359,6950,029.3,045.4,0.000,749.4,01.17,0.508
2014-03-22 03:02:00,4602E-2,5C000490,-0724,1360,6866,029.3,045.4,0.000,749.4,01.17,0.508
2014-03-22 03:03:00,4575E-2,5C000490,-0724,1361,6906,029.4,045.4,0.000,749.5,01.17,0.508
2014-03-22 03:04:00,4616E-2,5C000490,-0724,1361,6910,029.3,045.4,0.000,749.4,01.17,0.508
2014-03-22 03:05:00,4613E-2,5C000490,-0724,1362,6980,029.3,045.4,0.000,749.5,01.17,0.508
2014-03-22 03:06:00,4579E-2,5C000490,-0724,1363,6880,029.3,045.4,0.000,749.5,01.17,0.508
2014-03-22 03:07:00,4621E-2,5C000490,-0724,1364,6892,029.4,045.4,0.000,749.5,01.17,0.508
2014-03-22 03:08:00,4590E-2,5C000490,-0724,1364,6946,029.4,045.3,0.000,749.5,01.17,0.508
2014-03-22 03:09:00,4597E-2,5C000490,-0724,1365,6929,029.4,045.4,0.000,749.5,01.17,0.508
2014-03-22 03:10:00,4623E-2,5C000490,-0724,1365,6887,029.4,045.4,0.000,749.5,01.17,0.508
2014-03-22 03:11:00,4558E-2,5C000490,-0724,1365,6863,029.4,045.4,0.000,749.4,01.17,0.508
2014-03-22 03:12:00,4577E-2,5C000490,-0724,1366,6842,029.4,045.4,0.000,749.4,01.17,0.508
2014-03-22 03:13:00,4616E-2,5C000490,-0724,1366,6846,029.4,045.4,0.000,749.4,01.17,0.508
2014-03-22 03:14:00,4567E-2,5C000490,-0724,1367,6870,029.4,045.4,0.000,749.4,01.17,0.508
2014-03-22 03:15:00,4548E-2,5C000490,-0724,1367,6831,029.4,045.4,0.000,749.4,01.17,0.508
2014-03-22 03:16:00,4539E-2,5C000490,-0724,1368,6815,029.4,045.4,0.000,749.5,01.17,0.508
2014-03-22 03:17:00,4540E-2,5C000490,-0724,1369,6846,029.4,045.4,0.000,749.4,01.17,0.508
2014-03-22 03:18:00,4536E-2,5C000490,-0724,1369,6866,029.4,045.4,0.000,749.5,01.17,0.508
2014-03-22 03:19:00,4616E-2,5C000490,-0724,1367,6848,029.4,045.4,0.000,749.5,01.17,0.508
2014-03-22 03:20:00,4562E-2,5C000490,-0724,1366,6933,029.4,045.4,0.000,749.5,01.17,0.508
2014-03-22 03:21:00,4560E-2,5C000490,-0724,1366,6790,029.4,045.3,0.000,749.6,01.17,0.508
2014-03-22 03:22:00,4547E-2,5C000490,-0724,1367,6776,029.4,045.4,0.000,749.6,01.17,0.508
2014-03-22 03:23:00,4570E-2,5C000490,-0724,1366,6941,029.4,045.4,0.000,749.6,01.17,0.508
2014-03-22 03:24:00,4613E-2,5C000490,-0724,1365,6877,029.4,045.4,0.000,749.6,01.17,0.508
2014-03-22 03:25:00,4610E-2,5C000490,-0724,1365,6929,029.4,045.4,0.000,749.6,01.17,0.508
2014-03-22 03:26:00,4600E-2,5C000490,-0724,1364,6881,029.4,045.4,0.000,749.6,01.17,0.508
2014-03-22 03:27:00,4582E-2,5C000490,-0724,1363,6874,029.5,045.4,0.000,749.4,01.17,0.508
2014-03-22 03:28:00,4599E-2,5C000490,-0724,1362,6850,029.4,045.4,0.000,749.0,01.17,0.508
2014-03-22 03:29:00,4554E-2,5C000490,-0724,1362,6883,029.4,045.4,0.000,749.1,01.17,0.508
2014-03-22 03:30:00,4573E-2,5C000490,-0724,1360,6924,029.4,045.4,0.000,749.1,01.17,0.508
2014-03-22 03:31:00,4575E-2,5C000490,-0724,1360,6950,029.4,045.4,0.000,749.2,01.17,0.508
2014-03-22 03:32:00,4542E-2,5C000490,-0724,1361,6974,029.4,045.4,0.000,749.1,01.17,0.508
2014-03-22 03:33:00,4667E-2,5C000490,-0724,1361,6909,029.4,045.4,0.000,748.9,01.17,0.508
2014-03-22 03:34:00,4679E-2,5C000490,-0724,1361,6970,029.4,045.4,0.000,749.0,01.17,0.508
2014-03-22 03:35:00,4608E-2,5C000490,-0724,1360,6859,029.4,045.4,0.000,749.0,01.17,0.508
2014-03-22 03:36:00,4678E-2,5C000490,-0724,1360,6962,029.4,045.4,0.000,749.1,01.17,0.508
2014-03-22 03:37:00,4657E-2,5C000490,-0724,1359,7000,029.4,045.4,0.000,748.9,01.17,0.508
2014-03-22 03:38:00,4675E-2,5C000490,-0724,1359,6977,029.4,045.4,0.000,749.0,01.17,0.508
2014-03-22 03:39:00,4652E-2,5C000490,-0724,1357,7041,029.4,045.4,0.000,749.1,01.17,0.508
2014-03-22 03:40:00,4697E-2,5C000490,-0724,1357,7008,029.4,045.4,0.000,749.2,01.17,0.508
2014-03-22 03:41:00,4691E-2,5C000490,-0724,1356,7032,029.4,045.4,0.000,749.2,01.17,0.508
2014-03-22 03:42:00,4705E-2,5C000490,-0724,1356,6926,029.4,045.4,0.000,749.2,01.17,0.508
2014-03-22 03:43:00,4624E-2,5C000490,-0724,1356,7006,029.4,045.4,0.000,749.1,01.17,0.508
2014-03-22 03:44:00,4692E-2,5C000490,-0724,1356,7035,029.4,045.4,0.000,749.2,01.17,0.508
2014-03-22 03:45:00,4654E-2,5C000490,-0724,1357,6990,029.5,045.4,0.000,749.0,01.17,0.508
2014-03-22 03:46:00,4675E-2,5C000490,-0724,1357,7031,029.5,045.3,0.000,749.0,01.17,0.508
2014-03-22 03:47:00,4681E-2,5C000490,-0724,1358,7002,029.5,045.4,0.000,749.1,01.17,0.508
2014-03-22 03:48:00,4591E-2,5C000490,-0724,1358,6902,029.5,045.4,0.000,749.2,01.17,0.508
2014-03-22 03:49:00,4701E-2,5C000490,-0724,1351,6966,029.5,045.4,0.000,749.1,01.17,0.508
2014-03-22 03:50:00,4699E-2,5C000490,-0724,1351,7114,029.5,045.4,0.000,749.1,01.17,0.508
2014-03-22 03:51:00,4704E-2,5C000490,-0724,1351,7033,029.5,045.4,0.000,749.0,01.17,0.508
2014-03-22 03:52:00,4683E-2,5C000490,-0724,1351,7053,029.5,045.4,0.000,749.0,01.17,0.508
2014-03-22 03:53:00,4686E-2,5C000490,-0724,1351,7096,029.5,045.4,0.000,748.9,01.17,0.508
2014-03-22 03:54:00,4714E-2,5C000490,-0724,1353,7054,029.5,045.4,0.000,748.7,01.17,0.508
2014-03-22 03:55:00,4693E-2,5C000490,-0724,1352,7071,029.5,045.4,0.000,748.8,01.17,0.508
2014-03-22 03:56:00,4665E-2,5C000490,-0724,1353,6977,029.5,045.4,0.000,748.9,01.17,0.508
2014-03-22 03:57:00,4721E-2,5C000490,-0724,1354,6979,029.5,045.4,0.000,748.8,01.17,0.508
2014-03-22 03:58:00,4662E-2,5C000490,-0724,1354,7015,029.5,045.4,0.000,748.7,01.17,0.508
2014-03-22 03:59:00,4710E-2,5C000490,-0724,1355,7010,029.5,045.4,0.000,748.6,01.17,0.508
2014-03-22 04:00:00,4677E-2,5C000490,-0724,1355,7012,029.5,045.4,0.000,748.7,01.17,0.508
2014-03-22 04:01:00,4640E-2,5C000490,-0724,1356,7044,029.5,045.4,0.000,748.7,01.17,0.508
2014-03-22 04:02:00,4692E-2,5C000490,-0724,1356,6983,029.5,045.4,0.000,748.7,01.17,0.508
2014-03-22 04:03:00,4680E-2,5C000490,-0724,1356,6964,029.5,045.4,0.000,748.7,01.17,0.508
2014-03-22 04:04:00,4680E-2,5C000490,-0724,1356,6942,029.5,045.4,0.000,748.7,01.17,0.508
2014-03-22 04:05:00,4698E-2,5C000490,-0724,1357,6992,029.5,045.4,0.000,748.8,01.17,0.508
2014-03-22 04:06:00,4689E-2,5C000490,-0724,1357,6962,029.5,045.4,0.000,748.7,01.17,0.508
2014-03-22 04:07:00,4709E-2,5C000490,-0724,1357,7001,029.5,045.4,0.000,748.8,01.17,0.508
2014-03-22 04:08:00,4690E-2,5C000490,-0724,1359,6926,029.5,045.4,0.000,748.8,01.17,0.508
2014-03-22 04:09:00,4720E-2,5C000490,-0724,1359,6940,029.5,045.4,0.000,748.7,01.17,0.508
2014-03-22 04:10:00,4703E-2,5C000490,-0724,1360,6924,029.5,045.4,0.000,748.7,01.17,0.508
2014-03-22 04:11:00,4661E-2,5C000490,-0724,1360,6880,029.5,045.4,0.000,748.7,01.17,0.508
2014-03-22 04:12:00,4665E-2,5C000490,-0724,1361,6862,029.5,045.4,0.000,748.8,01.17,0.508
2014-03-22 04:13:00,4696E-2,5C000490,-0724,1362,7005,029.5,045.4,0.000,748.8,01.17,0.508
2014-03-22 04:14:00,4733E-2,5C000490,-0724,1362,6954,029.5,045.4,0.000,748.8,01.17,0.508
2014-03-22 04:15:00,4671E-2,5C000490,-0724,1363,6946,029.5,045.4,0.000,748.8,01.17,0.508
2014-03-22 04:16:00,4616E-2,5C000490,-0724,1364,6940,029.5,045.4,0.000,748.6,01.17,0.508
2014-03-22 04:17:00,4713E-2,5C000490,-0724,1364,6853,029.5,045.4,0.000,748.7,01.17,0.508
2014-03-22 04:18:00,4708E-2,5C000490,-0724,1365,6873,029.5,045.4,0.000,748.7,01.17,0.508
2014-03-22 04:19:00,4690E-2,5C000490,-0724,1365,6838,029.5,045.4,0.000,748.6,01.17,0.508
2014-03-22 04:20:00,4763E-2,5C000490,-0724,1366,6873,029.5,045.4,0.000,748.6,01.17,0.508
2014-03-22 04:21:00,4760E-2,5C000490,-0724,1365,6840,029.5,045.4,0.000,748.6,01.17,0.508
2014-03-22 04:22:00,4694E-2,5C000490,-0724,1366,6748,029.5,045.4,0.000,748.5,01.17,0.508
2014-03-22 04:23:00,4825E-2,5C000490,-0724,1366,6824,029.5,045.3,0.000,748.5,01.17,0.508